Location: Willingham
(52.3167°N, 0.0667°E)
Time: 15:27:18
(UTC+00:00)

SL-08 R/B - Pass Details

Date: 19 May 2025
Orbit: 667 x 730 km, 98.5° (Epoch: 17 June)

Event Time Altitude Azimuth Distance (km) Brightness Sun altitude
Rises 20:27:51 0° 12° (NNE) 3,167 7.1 -4.7°
Reaches altitude 10° 20:30:11 10° 7° (N) 2,237 6.5 -5.0°
Maximum altitude 20:34:56 51° 293° (WNW) 909 4.4 -5.5°
Drops below altitude 10° 20:39:36 10° 218° (SW) 2,194 5.8 -6.1°
Sets 20:41:53 0° 213° (SSW) 3,101 6.5 -6.3°
